Crookston, MN

2:01 AM CST on February 27, 2017 (GMT -0600)
Crookston Municipal-Kirkwood

Weather History for KCKN - July, 2013

Change the Weather History Date:

Monday, July 29, 2013

  Actual Average Record
Temperature  
Mean Temperature 69 °F -  
Max Temperature 78 °F 77 °F 89 °F (1999)
Min Temperature 60 °F 55 °F 46 °F (1998)
Cooling Degree Days 4    
Growing Degree Days 19 (Base 50)    
Moisture  
Dew Point 54 °F    
Average Humidity 57    
Maximum Humidity 94    
Minimum Humidity 39    
Precipitation  
Precipitation 0.00 in - - ()
Sea Level Pressure  
Sea Level Pressure 30.03 in    
Wind  
Wind Speed 9 mph (South)    
Max Wind Speed 17 mph    
Max Gust Speed 24 mph    
Visibility 10 miles    
Events      
Averages and records for this station are not official NWS values.
T = Trace of Precipitation, MM = Missing Value Source: NWS Daily Summary

Daily Weather History Graph

Daily Weather History Graph

Search for Another Location

Airport or City:

Trip Planner

Search our weather history database for the weather conditions in past years. The results will help you decide how hot, cold, wet, or windy it might be!

Date:

Astronomy

Jul. 29, 2013 Rise Set
Actual Time 5:59 AM CDT 9:05 PM CDT
Civil Twilight 5:22 AM CDT 9:41 PM CDT
Nautical Twilight 4:35 AM CDT 10:29 PM CDT
Astronomical Twilight 3:36 AM CDT 11:27 PM CDT
Moon No Moon Rise 2:22 PM CDT (7/29)
Length of Visible Light 16h 18m
Length of Day
15h 05m
Waning Gibbous, 50% of the Moon is Illuminated
Jul 29
Waning Gibbous
Jul 29
Last Quarter
Aug 6
New
Aug 14
First Quarter
Aug 20
Full

Hourly Weather History & Observations

Time (CDT) Temp. Dew Point Humidity Pressure Visibility Wind Dir Wind Speed Gust Speed Precip Events Conditions
8:21 AM 60.8 °F 51.8 °F 72% 30.05 in 10.0 mi SE 4.6 mph - N/A   Clear
8:47 AM 62.6 °F 51.8 °F 68% 30.06 in 10.0 mi South 4.6 mph - N/A   Clear
8:55 AM 62.6 °F 51.8 °F 68% 30.06 in 10.0 mi South 5.8 mph - N/A   Clear
9:14 AM 62.6 °F 53.6 °F 72% 30.07 in 10.0 mi South 5.8 mph - N/A   Clear
9:34 AM 64.4 °F 53.6 °F 68% 30.06 in 10.0 mi South 5.8 mph - N/A   Clear
9:55 AM 64.4 °F 53.6 °F 68% 30.06 in 10.0 mi South 4.6 mph - N/A   Clear
10:14 AM 66.2 °F 53.6 °F 64% 30.07 in 10.0 mi SSE 6.9 mph - N/A   Clear
10:35 AM 66.2 °F 53.6 °F 64% 30.06 in 10.0 mi South 8.1 mph - N/A   Clear
10:46 AM 68.0 °F 53.6 °F 60% 30.06 in 10.0 mi South 6.9 mph - N/A   Clear
11:01 AM 68.0 °F 53.6 °F 60% 30.06 in 10.0 mi South 9.2 mph - N/A   Clear
11:21 AM 69.8 °F 53.6 °F 56% 30.05 in 10.0 mi South 8.1 mph - N/A   Clear
11:52 AM 71.6 °F 53.6 °F 53% 30.05 in 10.0 mi South 10.4 mph 16.1 mph N/A   Clear
12:07 PM 73.4 °F 53.6 °F 50% 30.04 in 10.0 mi SSW 11.5 mph - N/A   Clear
12:30 PM 73.4 °F 51.8 °F 47% 30.04 in 10.0 mi South 13.8 mph - N/A   Clear
12:56 PM 71.6 °F 51.8 °F 50% 30.04 in 10.0 mi SSW 10.4 mph 20.7 mph N/A   Clear
1:14 PM 71.6 °F 51.8 °F 50% 30.04 in 10.0 mi SSW 13.8 mph 18.4 mph N/A   Clear
1:34 PM 73.4 °F 50.0 °F 44% 30.03 in 10.0 mi South 9.2 mph 12.7 mph N/A   Clear
1:55 PM 75.2 °F 51.8 °F 44% 30.03 in 10.0 mi South 17.3 mph 21.9 mph N/A   Scattered Clouds
2:02 PM 75.2 °F 51.8 °F 44% 30.02 in 10.0 mi SSW 11.5 mph 21.9 mph N/A   Scattered Clouds
2:27 PM 77.0 °F 51.8 °F 41% 30.02 in 10.0 mi SSW 13.8 mph 23.0 mph N/A   Clear
2:41 PM 75.2 °F 51.8 °F 44% 30.02 in 10.0 mi South 17.3 mph 21.9 mph N/A   Scattered Clouds
3:08 PM 75.2 °F 51.8 °F 44% 30.01 in 10.0 mi SSW 16.1 mph 20.7 mph N/A   Scattered Clouds
3:21 PM 75.2 °F 51.8 °F 44% 30.01 in 10.0 mi SSE 13.8 mph - N/A   Scattered Clouds
3:41 PM 77.0 °F 51.8 °F 41% 30.01 in 10.0 mi SSW 15.0 mph 20.7 mph N/A   Scattered Clouds
4:01 PM 77.0 °F 53.6 °F 44% 30.01 in 10.0 mi South 13.8 mph 20.7 mph N/A   Scattered Clouds
4:21 PM 78.8 °F 51.8 °F 39% 30.01 in 10.0 mi South 17.3 mph 24.2 mph N/A   Scattered Clouds
5:01 PM 75.2 °F 51.8 °F 44% 30.01 in 10.0 mi South 13.8 mph 19.6 mph N/A   Scattered Clouds
5:21 PM 77.0 °F 53.6 °F 44% 30.01 in 10.0 mi South 13.8 mph 21.9 mph N/A   Scattered Clouds
5:41 PM 75.2 °F 51.8 °F 44% 30.01 in 10.0 mi SSW 13.8 mph 19.6 mph N/A   Scattered Clouds
6:01 PM 75.2 °F 51.8 °F 44% 30.01 in 10.0 mi SSW 13.8 mph 17.3 mph N/A   Scattered Clouds
6:21 PM 75.2 °F 51.8 °F 44% 30.01 in 10.0 mi South 12.7 mph 19.6 mph N/A   Scattered Clouds
6:41 PM 75.2 °F 51.8 °F 44% 30.00 in 10.0 mi South 10.4 mph - N/A   Scattered Clouds
7:01 PM 75.2 °F 51.8 °F 44% 30.00 in 10.0 mi South 13.8 mph 17.3 mph N/A   Scattered Clouds
7:21 PM 73.4 °F 53.6 °F 50% 30.00 in 10.0 mi South 12.7 mph - N/A   Scattered Clouds
7:41 PM 73.4 °F 53.6 °F 50% 30.00 in 10.0 mi South 9.2 mph - N/A   Scattered Clouds
8:01 PM 73.4 °F 55.4 °F 53% 30.00 in 10.0 mi South 11.5 mph - N/A   Mostly Cloudy
8:35 PM 69.8 °F 55.4 °F 60% 30.00 in 10.0 mi South 10.4 mph - N/A   Clear
8:41 PM 69.8 °F 55.4 °F 60% 30.00 in 10.0 mi South 11.5 mph - N/A   Clear
9:01 PM 69.8 °F 55.4 °F 60% 30.01 in 10.0 mi South 10.4 mph - N/A   Clear
9:21 PM 68.0 °F 55.4 °F 64% 30.00 in 10.0 mi South 9.2 mph - N/A   Scattered Clouds
9:41 PM 68.0 °F 55.4 °F 64% 30.01 in 10.0 mi South 8.1 mph - N/A   Overcast
10:01 PM 68.0 °F 55.4 °F 64% 30.02 in 10.0 mi South 8.1 mph - N/A   Overcast
10:21 PM 66.2 °F 55.4 °F 68% 30.02 in 10.0 mi South 5.8 mph - N/A   Overcast
10:41 PM 64.4 °F 59.0 °F 83% 30.04 in 10.0 mi SW 3.5 mph - N/A   Overcast
11:06 PM 62.6 °F 59.0 °F 88% 30.04 in 10.0 mi SSW 3.5 mph - N/A   Overcast
11:21 PM 62.6 °F 60.8 °F 94% 30.04 in 10.0 mi SSW 2.3 mph - N/A   Overcast
11:41 PM 62.6 °F 60.8 °F 94% 30.04 in 10.0 mi SSE 5.8 mph - N/A   Overcast